When you browse on this site, cookies collect data to enhance your experience and personalize the content and advertising you see.
Visit our Privacy Policy to learn more. By continuing to use the site, you agree to this use of cookies and data.
  • în România
  • Lista ţărilor
  • Pe 7 zile
  • Temperatura apei
  • Hartă satelitară
  • Meteo pe hartă
  • Widget-uri
  • user-avatar
    Intrare

    Meteo pe oră la Gagra

    Astăzi, 22 Mai, Miercuri

    Timp Temperatura Precipitaţii Vânt Presiune Umiditate
    00:00 +18°C° 0 mm 3 m/s 734 mmHg 74%
    01:00 +18°C° 0 mm 3 m/s 734 mmHg 71%
    02:00 +17°C° 0 mm 3 m/s 734 mmHg 68%
    03:00 +17°C° 0 mm 4 m/s 733 mmHg 66%
    04:00 +17°C° 0 mm 3 m/s 733 mmHg 66%
    05:00 +17°C° 0 mm 3 m/s 733 mmHg 67%
    06:00 +18°C° 0 mm 3 m/s 733 mmHg 68%
    07:00 +19°C° 0 mm 3 m/s 733 mmHg 66%
    08:00 +21°C° 0 mm 2 m/s 733 mmHg 64%
    09:00 +23°C° 0 mm 2 m/s 733 mmHg 62%
    10:00 +23°C° 0.4 mm 2 m/s 734 mmHg 67%
    11:00 +22°C° 0.4 mm 1 m/s 734 mmHg 72%
    12:00 +22°C° 0.4 mm 1 m/s 734 mmHg 77%
    13:00 +23°C° 0.1 mm 1 m/s 734 mmHg 73%
    14:00 +24°C° 0.1 mm 1 m/s 735 mmHg 69%
    15:00 +24°C° 0.1 mm 2 m/s 735 mmHg 64%
    16:00 +24°C° 0.1 mm 1 m/s 735 mmHg 68%
    17:00 +23°C° 0.1 mm 1 m/s 734 mmHg 71%
    18:00 +22°C° 0.1 mm 1 m/s 734 mmHg 75%
    19:00 +21°C° 0 mm 1 m/s 734 mmHg 78%
    20:00 +18°C° 0 mm 2 m/s 734 mmHg 82%
    21:00 +16°C° 0 mm 3 m/s 734 mmHg 85%
    22:00 +16°C° 0 mm 3 m/s 734 mmHg 81%
    23:00 +14°C° 0 mm 3 m/s 734 mmHg 76%

    Mâine, 23 Mai, Joi

    Timp Temperatura Precipitaţii Vânt Presiune Umiditate
    00:00 +14°C° 0 mm 4 m/s 734 mmHg 72%
    01:00 +14°C° 0 mm 3 m/s 734 mmHg 69%
    02:00 +14°C° 0 mm 3 m/s 734 mmHg 65%
    03:00 +14°C° 0 mm 3 m/s 734 mmHg 62%
    04:00 +14°C° 0 mm 3 m/s 734 mmHg 62%
    05:00 +14°C° 0 mm 3 m/s 734 mmHg 62%
    06:00 +16°C° 0 mm 3 m/s 734 mmHg 62%
    07:00 +18°C° 0 mm 2 m/s 734 mmHg 58%
    08:00 +20°C° 0 mm 2 m/s 734 mmHg 54%
    09:00 +23°C° 0 mm 2 m/s 734 mmHg 50%
    10:00 +24°C° 0 mm 2 m/s 734 mmHg 50%
    11:00 +24°C° 0 mm 2 m/s 734 mmHg 50%
    12:00 +25°C° 0 mm 3 m/s 734 mmHg 51%
    13:00 +25°C° 0 mm 2 m/s 734 mmHg 51%
    14:00 +25°C° 0 mm 2 m/s 734 mmHg 51%
    15:00 +25°C° 0 mm 2 m/s 734 mmHg 52%
    16:00 +24°C° 0 mm 2 m/s 733 mmHg 57%
    17:00 +23°C° 0 mm 1 m/s 733 mmHg 62%
    18:00 +22°C° 0 mm 1 m/s 733 mmHg 67%
    19:00 +20°C° 0 mm 1 m/s 733 mmHg 73%
    20:00 +18°C° 0 mm 1 m/s 733 mmHg 78%
    21:00 +16°C° 0 mm 2 m/s 734 mmHg 83%
    22:00 +15°C° 0 mm 2 m/s 734 mmHg 79%
    23:00 +15°C° 0 mm 2 m/s 734 mmHg 74%

    Poimâine, 24 Mai, Vineri

    Timp Temperatura Precipitaţii Vânt Presiune Umiditate
    00:00 +14°C° 0 mm 3 m/s 734 mmHg 70%
    01:00 +14°C° 0 mm 3 m/s 733 mmHg 68%
    02:00 +14°C° 0 mm 3 m/s 733 mmHg 65%
    03:00 +14°C° 0 mm 3 m/s 733 mmHg 63%
    04:00 +14°C° 0 mm 3 m/s 733 mmHg 62%
    05:00 +14°C° 0 mm 3 m/s 733 mmHg 62%
    06:00 +16°C° 0 mm 3 m/s 733 mmHg 61%
    07:00 +18°C° 0 mm 3 m/s 733 mmHg 55%
    08:00 +21°C° 0 mm 2 m/s 733 mmHg 49%
    09:00 +25°C° 0 mm 2 m/s 733 mmHg 42%
    10:00 +26°C° 0 mm 2 m/s 733 mmHg 40%
    11:00 +26°C° 0 mm 2 m/s 733 mmHg 38%
    12:00 +27°C° 0 mm 3 m/s 733 mmHg 36%
    13:00 +27°C° 0 mm 2 m/s 732 mmHg 36%
    14:00 +28°C° 0 mm 2 m/s 732 mmHg 37%
    15:00 +28°C° 0 mm 2 m/s 732 mmHg 37%
    16:00 +26°C° 0 mm 1 m/s 731 mmHg 45%
    17:00 +25°C° 0 mm 1 m/s 731 mmHg 53%
    18:00 +24°C° 0 mm 1 m/s 731 mmHg 61%
    19:00 +23°C° 0 mm 1 m/s 731 mmHg 54%
    20:00 +21°C° 0 mm 2 m/s 731 mmHg 46%
    21:00 +20°C° 0 mm 3 m/s 730 mmHg 38%
    22:00 +20°C° 0 mm 3 m/s 730 mmHg 35%
    23:00 +20°C° 0 mm 4 m/s 730 mmHg 32%

    25 Mai, Sâmbătă

    Timp Temperatura Precipitaţii Vânt Presiune Umiditate
    00:00 +20°C° 0 mm 4 m/s 730 mmHg 29%
    01:00 +20°C° 0.1 mm 4 m/s 729 mmHg 41%
    02:00 +20°C° 0.1 mm 5 m/s 729 mmHg 52%
    03:00 +20°C° 0.1 mm 5 m/s 728 mmHg 64%
    04:00 +20°C° 0.3 mm 5 m/s 728 mmHg 69%
    05:00 +20°C° 0.3 mm 4 m/s 728 mmHg 75%
    06:00 +20°C° 0.3 mm 4 m/s 728 mmHg 80%
    07:00 +24°C° 0.1 mm 3 m/s 728 mmHg 67%
    08:00 +27°C° 0.1 mm 3 m/s 728 mmHg 54%
    09:00 +30°C° 0.1 mm 2 m/s 728 mmHg 41%
    10:00 +30°C° 0 mm 2 m/s 728 mmHg 41%
    11:00 +30°C° 0 mm 3 m/s 728 mmHg 42%
    12:00 +30°C° 0 mm 3 m/s 729 mmHg 43%
    13:00 +30°C° 0.3 mm 3 m/s 729 mmHg 48%
    14:00 +29°C° 0.3 mm 4 m/s 730 mmHg 53%
    15:00 +28°C° 0.3 mm 4 m/s 730 mmHg 58%
    16:00 +27°C° 0.6 mm 4 m/s 731 mmHg 65%
    17:00 +25°C° 0.6 mm 3 m/s 731 mmHg 73%
    18:00 +24°C° 0.6 mm 3 m/s 732 mmHg 80%
    19:00 +21°C° 0.4 mm 2 m/s 732 mmHg 84%
    20:00 +20°C° 0.4 mm 2 m/s 733 mmHg 89%
    21:00 +19°C° 0.4 mm 1 m/s 733 mmHg 94%
    22:00 +19°C° 0.5 mm 1 m/s 733 mmHg 94%
    23:00 +19°C° 0.5 mm 1 m/s 733 mmHg 95%

    26 Mai, Duminică

    Timp Temperatura Precipitaţii Vânt Presiune Umiditate
    00:00 +19°C° 0.5 mm 1 m/s 733 mmHg 95%
    01:00 +19°C° 0.4 mm 1 m/s 733 mmHg 95%
    02:00 +18°C° 0.4 mm 1 m/s 733 mmHg 94%
    03:00 +17°C° 0.4 mm 2 m/s 733 mmHg 93%
    04:00 +17°C° 0.7 mm 2 m/s 733 mmHg 92%
    05:00 +17°C° 0.7 mm 2 m/s 733 mmHg 90%
    06:00 +17°C° 0.7 mm 2 m/s 733 mmHg 89%
    07:00 +19°C° 0.3 mm 2 m/s 733 mmHg 82%
    08:00 +22°C° 0.3 mm 1 m/s 734 mmHg 75%
    09:00 +24°C° 0.3 mm 1 m/s 734 mmHg 69%
    10:00 +24°C° 0.4 mm 2 m/s 734 mmHg 72%
    11:00 +24°C° 0.4 mm 2 m/s 734 mmHg 75%
    12:00 +24°C° 0.4 mm 2 m/s 734 mmHg 78%
    13:00 +24°C° 0.6 mm 2 m/s 734 mmHg 77%
    14:00 +24°C° 0.6 mm 2 m/s 734 mmHg 76%
    15:00 +25°C° 0.6 mm 3 m/s 734 mmHg 74%
    16:00 +24°C° 0.3 mm 3 m/s 734 mmHg 76%
    17:00 +22°C° 0.3 mm 3 m/s 735 mmHg 78%
    18:00 +22°C° 0.3 mm 3 m/s 735 mmHg 79%
    19:00 +20°C° 0.1 mm 2 m/s 735 mmHg 81%
    20:00 +19°C° 0.1 mm 2 m/s 735 mmHg 83%
    21:00 +17°C° 0.1 mm 2 m/s 736 mmHg 85%
    22:00 +17°C° 0 mm 2 m/s 736 mmHg 82%
    23:00 +16°C° 0 mm 2 m/s 736 mmHg 80%

    27 Mai, Luni

    Timp Temperatura Precipitaţii Vânt Presiune Umiditate
    00:00 +16°C° 0 mm 2 m/s 736 mmHg 78%
    01:00 +16°C° 0 mm 2 m/s 736 mmHg 78%
    02:00 +16°C° 0 mm 2 m/s 736 mmHg 78%
    03:00 +15°C° 0 mm 2 m/s 736 mmHg 78%
    04:00 +16°C° 0 mm 2 m/s 736 mmHg 78%
    05:00 +16°C° 0 mm 2 m/s 736 mmHg 78%
    06:00 +17°C° 0 mm 2 m/s 736 mmHg 78%
    07:00 +19°C° 0 mm 2 m/s 736 mmHg 69%
    08:00 +21°C° 0 mm 2 m/s 737 mmHg 61%
    09:00 +25°C° 0 mm 1 m/s 737 mmHg 53%
    10:00 +25°C° 0 mm 2 m/s 737 mmHg 51%
    11:00 +26°C° 0 mm 2 m/s 737 mmHg 49%
    12:00 +27°C° 0 mm 2 m/s 737 mmHg 48%
    13:00 +27°C° 0 mm 3 m/s 737 mmHg 49%
    14:00 +27°C° 0 mm 3 m/s 737 mmHg 50%
    15:00 +27°C° 0 mm 3 m/s 736 mmHg 52%
    16:00 +26°C° 0 mm 3 m/s 736 mmHg 56%
    17:00 +26°C° 0 mm 3 m/s 736 mmHg 61%
    18:00 +25°C° 0 mm 2 m/s 736 mmHg 65%
    19:00 +24°C° 0 mm 2 m/s 736 mmHg 72%
    20:00 +21°C° 0 mm 2 m/s 737 mmHg 78%
    21:00 +19°C° 0 mm 2 m/s 737 mmHg 84%
    22:00 +19°C° 0 mm 2 m/s 737 mmHg 83%
    23:00 +19°C° 0 mm 2 m/s 737 mmHg 83%
    Arată mai mult